Find Starlink 36794

NORAD ID: 68955 Int'l Des: 2026-099 Owner: SPXS Country: US Constellation: starlink operational
LEOCIRCULAR

リアルタイム位置

3D地球を読み込み中...

Starlink 36794について

説明を読み込み中...

次回通過

Passes for default location (London). Set your location on the main map for personalized predictions.

高度履歴

Loading altitude history...

軌道要素

1 68955C 26099E 26125.81437500 -.01515200 00000+0 -26754-2 0 1255
2 68955 53.1617 7.3730 0000414 97.6961 2.9617 16.01991563 12
Epoch: May 5, 2026 • Age: 31 hours

現在のステータス

高度 278.5 km
速度 7.75 km/s
衛星直下点 49.76°N, 91.15°E
打ち上げ日 May 1, 2026
運用期間 4 days
タイプ internet

技術仕様

分類 Payload
質量 575.00 kg
乾燥質量 530.00 kg
総質量 575.00 kg
長さ 0.30 m
直径 4.10 m
スパン 29.00 m
形状 Box + pan
製造者 SPXS
バスタイプ Starlink V2MO
フェーズステータス In Orbit
所有者/国 SPXS/US

Most Searched